This is the latest recevied weather packets stored in our database for station/object NK7E-1. If no packets are shown the sender has not sent any weather packets the latest 10 day(s).
| Time | Temp. | Humidity | Pressure | Rain* | Wind** | Luminosity | Snow |
|---|---|---|---|---|---|---|---|
| 1777976399 | 14.44° C | 90% | 1012.5 hPa | 0.51 mm | - | - | - |
| 1777975799 | 14.44° C | 90% | 1013.3 hPa | 0.51 mm | - | - | - |
| 1777975201 | 14.44° C | 90% | 1013.6 hPa | 0.76 mm | - | - | - |
| 1777974599 | 14.44° C | 90% | 1013.6 hPa | 0.76 mm | - | - | - |
| 1777974000 | 14.44° C | 90% | 1013.5 hPa | 1.02 mm | - | - | - |
| 1777973399 | 14.44° C | 90% | 1013.7 hPa | 1.02 mm | - | - | - |
| 1777972799 | 14.44° C | 91% | 1013.9 hPa | 0.51 mm | - | - | - |
| 1777972199 | 14.44° C | 91% | 1014 hPa | 0.76 mm | - | - | - |
| 1777971599 | 15° C | 91% | 1014 hPa | 0.51 mm | - | - | - |
| 1777971000 | 15° C | 91% | 1014.2 hPa | 0.76 mm | - | - | - |
| 1777970401 | 15° C | 91% | 1014.4 hPa | 0.76 mm | - | - | - |
| 1777969799 | 15° C | 91% | 1014.7 hPa | 1.02 mm | - | - | - |
| 1777969199 | 15° C | 91% | 1015.4 hPa | 1.27 mm | - | - | - |
| 1777968599 | 15° C | 91% | 1015.6 hPa | 1.52 mm | - | - | - |
| 1777968001 | 15° C | 91% | 1015.7 hPa | 1.78 mm | - | - | - |
| 1777967402 | 15° C | 91% | 1016 hPa | 1.78 mm | - | - | - |
| 1777966801 | 15° C | 91% | 1016.2 hPa | 2.03 mm | - | - | - |
| 1777966201 | 15° C | 91% | 1016.3 hPa | 2.03 mm | - | - | - |
| 1777965601 | 15° C | 91% | 1016.1 hPa | 2.03 mm | - | - | - |
| 1777965001 | 15° C | 91% | 1016.1 hPa | 1.78 mm | - | - | - |
| 1777964401 | 15° C | 91% | 1016 hPa | 2.03 mm | - | - | - |
| 1777963800 | 15° C | 90% | 1015.9 hPa | 1.78 mm | - | - | - |
| 1777963202 | 15° C | 90% | 1015.9 hPa | 1.52 mm | - | - | - |
| 1777962601 | 15° C | 90% | 1015.9 hPa | 1.52 mm | - | - | - |
| 1777962002 | 15° C | 90% | 1015.8 hPa | 1.52 mm | - | - | - |
* Rain latest hour (hover to see other rain measurements)
** Current wind speed in m/s (hover to see current wind gust speed)